| time (UTC) | temp F | wind direction | speed MPH | gust MPH | rain 1hr in | rain 24hr in | rain mn in | humidity % | barometer mb |
| 20260509063104 | 52 | 293 | 0.0 | 0.0 | 0.00 | 0.00 | 0.00 | 68 | 1016.4 |
| 20260509062556 | 52 | 293 | 0.0 | 0.0 | 0.00 | 0.00 | 0.00 | 68 | 1016.3 |
| 20260509062055 | 52 | 293 | 0.0 | 0.0 | 0.00 | 0.00 | 0.00 | 68 | 1016.3 |
| 20260509061554 | 53 | 293 | 0.0 | 0.0 | 0.00 | 0.00 | 0.00 | 65 | 1016.2 |
| 20260509061052 | 53 | 293 | 0.0 | 0.0 | 0.00 | 0.00 | 0.00 | 64 | 1016.2 |
| 20260509060550 | 53 | 293 | 0.0 | 0.0 | 0.00 | 0.00 | 0.00 | 63 | 1016.1 |
| 20260509060055 | 54 | 293 | 0.0 | 0.0 | 0.00 | 0.00 | 0.00 | 63 | 1016.0 |
| 20260509055548 | 54 | 293 | 0.0 | 0.0 | 0.00 | 0.00 | 0.00 | 62 | 1016.0 |
| 20260509055047 | 54 | 293 | 0.0 | 0.0 | 0.00 | 0.00 | 0.00 | 61 | 1015.9 |
| 20260509054549 | 55 | 293 | 0.0 | 0.0 | 0.00 | 0.00 | 0.00 | 61 | 1015.8 |
| 20260509054048 | 55 | 293 | 0.0 | 0.0 | 0.00 | 0.00 | 0.00 | 59 | 1015.7 |
| 20260509053547 | 56 | 293 | 0.0 | 0.0 | 0.00 | 0.00 | 0.00 | 58 | 1015.7 |
| 20260509053112 | 56 | 293 | 0.0 | 0.0 | 0.00 | 0.00 | 0.00 | 57 | 1015.6 |
| 20260509052547 | 56 | 292 | 0.0 | 0.0 | 0.00 | 0.00 | 0.00 | 55 | 1015.6 |
| 20260509052047 | 56 | 293 | 0.0 | 0.0 | 0.00 | 0.00 | 0.00 | 57 | 1015.5 |
| 20260509051546 | 56 | 293 | 0.0 | 0.0 | 0.00 | 0.00 | 0.00 | 57 | 1015.4 |
| 20260509051046 | 56 | 293 | 0.0 | 0.0 | 0.00 | 0.00 | 0.00 | 57 | 1015.4 |
| 20260509050546 | 57 | 293 | 0.0 | 0.0 | 0.00 | 0.00 | 0.00 | 56 | 1015.3 |
| 20260509050046 | 57 | 293 | 0.0 | 0.0 | 0.00 | 0.00 | 0.00 | 54 | 1015.3 |
| 20260509045547 | 57 | 293 | 0.0 | 0.0 | 0.00 | 0.00 | 0.00 | 54 | 1015.3 |
| 20260509045046 | 58 | 293 | 0.0 | 0.0 | 0.00 | 0.00 | 0.00 | 53 | 1015.2 |
| 20260509044546 | 58 | 293 | 0.0 | 0.0 | 0.00 | 0.00 | 0.00 | 52 | 1015.1 |
| 20260509044045 | 59 | 293 | 0.0 | 0.0 | 0.00 | 0.00 | 0.00 | 52 | 1015.0 |
| 20260509043546 | 59 | 293 | 0.0 | 0.0 | 0.00 | 0.00 | 0.00 | 52 | 1014.9 |
| 20260509043102 | 59 | 292 | 0.0 | 0.0 | 0.00 | 0.00 | 0.00 | 50 | 1014.8 |
| 20260509042545 | 60 | 292 | 0.0 | 0.0 | 0.00 | 0.00 | 0.00 | 49 | 1014.7 |
| 20260509042048 | 60 | 294 | 0.0 | 0.0 | 0.00 | 0.00 | 0.00 | 49 | 1014.6 |
| 20260509041557 | 60 | 294 | 0.0 | 0.0 | 0.00 | 0.00 | 0.00 | 47 | 1014.6 |
| 20260509041146 | 60 | 294 | 0.0 | 0.0 | 0.00 | 0.00 | 0.00 | 47 | 1014.5 |
| 20260509040546 | 60 | 294 | 0.0 | 0.0 | 0.00 | 0.00 | 0.00 | 48 | 1014.4 |
| 20260509040050 | 61 | 292 | 0.0 | 0.0 | 0.00 | 0.00 | 0.00 | 47 | 1014.3 |
| 20260509035544 | 61 | 293 | 0.0 | 0.0 | 0.00 | 0.00 | 0.00 | 49 | 1014.2 |
| 20260509035044 | 62 | 293 | 0.0 | 0.0 | 0.00 | 0.00 | 0.00 | 46 | 1014.1 |
| 20260509034559 | 62 | 294 | 0.0 | 0.0 | 0.00 | 0.00 | 0.00 | 48 | 1014.0 |
| 20260509034043 | 62 | 294 | 0.0 | 0.0 | 0.00 | 0.00 | 0.00 | 47 | 1014.1 |
| 20260509033544 | 63 | 294 | 0.0 | 0.0 | 0.00 | 0.00 | 0.00 | 45 | 1014.0 |
| 20260509033043 | 64 | 294 | 0.0 | 0.0 | 0.00 | 0.00 | 0.00 | 44 | 1014.0 |
| 20260509032543 | 64 | 294 | 0.0 | 0.0 | 0.00 | 0.00 | 0.00 | 43 | 1013.9 |
| 20260509032042 | 65 | 294 | 0.0 | 0.0 | 0.00 | 0.00 | 0.00 | 42 | 1013.9 |
| 20260509031542 | 66 | 294 | 0.0 | 0.0 | 0.00 | 0.00 | 0.00 | 41 | 1013.8 |
| 20260509031042 | 67 | 293 | 0.0 | 0.0 | 0.00 | 0.00 | 0.00 | 40 | 1013.7 |
| 20260509030545 | 68 | 294 | 0.0 | 0.0 | 0.00 | 0.00 | 0.00 | 38 | 1013.6 |
| 20260509030042 | 69 | 294 | 0.0 | 0.0 | 0.00 | 0.00 | 0.00 | 38 | 1013.6 |
| 20260509025543 | 70 | 294 | 0.0 | 0.0 | 0.00 | 0.00 | 0.00 | 37 | 1013.5 |
| 20260509025041 | 70 | 293 | 0.0 | 0.0 | 0.00 | 0.00 | 0.00 | 34 | 1013.5 |
| 20260509024541 | 71 | 293 | 0.0 | 0.0 | 0.00 | 0.00 | 0.00 | 33 | 1013.5 |
| 20260509024041 | 72 | 294 | 0.0 | 0.0 | 0.00 | 0.00 | 0.00 | 32 | 1013.5 |
| 20260509023543 | 72 | 294 | 0.0 | 1.0 | 0.00 | 0.00 | 0.00 | 28 | 1013.4 |
| 20260509023040 | 73 | 294 | 0.0 | 3.0 | 0.00 | 0.00 | 0.00 | 27 | 1013.4 |
| 20260509022540 | 73 | 294 | 1.0 | 3.0 | 0.00 | 0.00 | 0.00 | 26 | 1013.4 |
| 20260509022040 | 73 | 288 | 0.0 | 2.0 | 0.00 | 0.00 | 0.00 | 25 | 1013.2 |
| 20260509021539 | 73 | 288 | 0.0 | 3.0 | 0.00 | 0.00 | 0.00 | 26 | 1013.2 |
| 20260509021041 | 73 | 288 | 0.0 | 3.0 | 0.00 | 0.00 | 0.00 | 25 | 1013.1 |
| 20260509020542 | 74 | 289 | 0.0 | 2.0 | 0.00 | 0.00 | 0.00 | 25 | 1013.2 |
| 20260509020050 | 74 | 291 | 0.0 | 3.0 | 0.00 | 0.00 | 0.00 | 24 | 1013.1 |
| 20260509015538 | 74 | 290 | 0.0 | 3.0 | 0.00 | 0.00 | 0.00 | 24 | 1013.1 |
| 20260509015037 | 74 | 279 | 0.0 | 1.0 | 0.00 | 0.00 | 0.00 | 24 | 1013.1 |
| 20260509014537 | 74 | 279 | 0.0 | 3.0 | 0.00 | 0.00 | 0.00 | 23 | 1013.1 |
| 20260509014036 | 75 | 279 | 1.0 | 6.0 | 0.00 | 0.00 | 0.00 | 22 | 1013.1 |
| 20260509013536 | 75 | 290 | 2.0 | 6.0 | 0.00 | 0.00 | 0.00 | 21 | 1013.1 |
| 20260509013047 | 75 | 279 | 1.0 | 7.0 | 0.00 | 0.00 | 0.00 | 22 | 1013.1 |
| 20260509012635 | 75 | 294 | 1.0 | 7.0 | 0.00 | 0.00 | 0.00 | 22 | 1013.1 |
| 20260509012035 | 75 | 308 | 1.0 | 7.0 | 0.00 | 0.00 | 0.00 | 22 | 1013.1 |
| 20260509011536 | 75 | 293 | 1.0 | 7.0 | 0.00 | 0.00 | 0.00 | 22 | 1013.2 |
| 20260509011035 | 75 | 304 | 1.0 | 5.0 | 0.00 | 0.00 | 0.00 | 23 | 1013.2 |
| 20260509010536 | 75 | 19 | 0.0 | 6.0 | 0.00 | 0.00 | 0.00 | 21 | 1013.1 |
| 20260509010048 | 75 | 300 | 2.0 | 6.0 | 0.00 | 0.00 | 0.00 | 22 | 1013.2 |
| 20260509005534 | 75 | 293 | 0.0 | 5.0 | 0.00 | 0.00 | 0.00 | 22 | 1013.3 |
| 20260509005034 | 75 | 141 | 1.0 | 6.0 | 0.00 | 0.00 | 0.00 | 22 | 1013.4 |
| 20260509004534 | 75 | 292 | 1.0 | 6.0 | 0.00 | 0.00 | 0.00 | 22 | 1013.4 |
| 20260509004034 | 75 | 303 | 2.0 | 4.0 | 0.00 | 0.00 | 0.00 | 22 | 1013.5 |
| 20260509003534 | 75 | 283 | 0.0 | 2.0 | 0.00 | 0.00 | 0.00 | 21 | 1013.4 |
| 20260509003033 | 75 | 280 | 1.0 | 4.0 | 0.00 | 0.00 | 0.00 | 20 | 1013.4 |
| 20260509002532 | 75 | 291 | 1.0 | 4.0 | 0.00 | 0.00 | 0.00 | 20 | 1013.5 |
| 20260509002033 | 76 | 294 | 1.0 | 5.0 | 0.00 | 0.00 | 0.00 | 20 | 1013.6 |
| 20260509001533 | 76 | 304 | 1.0 | 5.0 | 0.00 | 0.00 | 0.00 | 20 | 1013.5 |
| 20260509001034 | 76 | 282 | 1.0 | 4.0 | 0.00 | 0.00 | 0.00 | 20 | 1013.5 |
| 20260509000532 | 75 | 293 | 1.0 | 5.0 | 0.00 | 0.00 | 0.00 | 21 | 1013.5 |
| 20260509000032 | 75 | 298 | 1.0 | 6.0 | 0.00 | 0.00 | 0.00 | 21 | 1013.5 |
| 20260508235633 | 76 | 288 | 2.0 | 6.0 | 0.00 | 0.00 | 0.00 | 19 | 1013.6 |
| 20260508235032 | 76 | 311 | 1.0 | 5.0 | 0.00 | 0.00 | 0.00 | 20 | 1013.5 |
| 20260508234535 | 76 | 308 | 1.0 | 4.0 | 0.00 | 0.00 | 0.00 | 20 | 1013.5 |
| 20260508234032 | 76 | 288 | 1.0 | 4.0 | 0.00 | 0.00 | 0.00 | 21 | 1013.5 |
| 20260508233533 | 75 | 285 | 0.0 | 2.0 | 0.00 | 0.00 | 0.00 | 21 | 1013.6 |
| 20260508233031 | 75 | 285 | 0.0 | 4.0 | 0.00 | 0.00 | 0.00 | 19 | 1013.6 |
| 20260508232531 | 75 | 288 | 1.0 | 5.0 | 0.00 | 0.00 | 0.00 | 19 | 1013.7 |
| 20260508232033 | 75 | 300 | 1.0 | 5.0 | 0.00 | 0.00 | 0.00 | 19 | 1013.6 |
| 20260508231530 | 75 | 276 | 2.0 | 5.0 | 0.00 | 0.00 | 0.00 | 19 | 1013.6 |
| 20260508231032 | 75 | 297 | 1.0 | 5.0 | 0.00 | 0.00 | 0.00 | 19 | 1013.7 |
| 20260508230531 | 75 | 295 | 1.0 | 5.0 | 0.00 | 0.00 | 0.00 | 19 | 1013.7 |
| 20260508230038 | 76 | 294 | 1.0 | 7.0 | 0.00 | 0.00 | 0.00 | 19 | 1013.7 |
| 20260508225530 | 75 | 306 | 3.0 | 8.0 | 0.00 | 0.00 | 0.00 | 19 | 1013.7 |
| 20260508225030 | 76 | 304 | 3.0 | 8.0 | 0.00 | 0.00 | 0.00 | 19 | 1013.9 |
| 20260508224537 | 76 | 294 | 2.0 | 7.0 | 0.00 | 0.00 | 0.00 | 20 | 1014.0 |
| 20260508224029 | 76 | 291 | 3.0 | 9.0 | 0.00 | 0.00 | 0.00 | 20 | 1014.0 |
| 20260508223529 | 76 | 298 | 2.0 | 9.0 | 0.00 | 0.00 | 0.00 | 20 | 1014.1 |
| 20260508223031 | 76 | 288 | 2.0 | 8.0 | 0.00 | 0.00 | 0.00 | 20 | 1014.0 |
| 20260508222529 | 76 | 300 | 3.0 | 8.0 | 0.00 | 0.00 | 0.00 | 20 | 1014.2 |
| 20260508222028 | 77 | 291 | 2.0 | 6.0 | 0.00 | 0.00 | 0.00 | 19 | 1014.2 |
| 20260508221540 | 77 | 288 | 0.0 | 6.0 | 0.00 | 0.00 | 0.00 | 21 | 1014.3 |
| 20260508221026 | 76 | 288 | 3.0 | 6.0 | 0.00 | 0.00 | 0.00 | 22 | 1014.4 |
| 20260508220525 | 76 | 274 | 3.0 | 6.0 | 0.00 | 0.00 | 0.00 | 22 | 1014.4 |
| 20260508220028 | 75 | 288 | 2.0 | 6.0 | 0.00 | 0.00 | 0.00 | 23 | 1014.6 |
| 20260508215524 | 74 | 290 | 2.0 | 8.0 | 0.00 | 0.00 | 0.00 | 23 | 1014.6 |
| 20260508215024 | 74 | 282 | 4.0 | 8.0 | 0.00 | 0.00 | 0.00 | 23 | 1014.7 |
| 20260508214524 | 75 | 288 | 3.0 | 8.0 | 0.00 | 0.00 | 0.00 | 23 | 1014.8 |
| 20260508214024 | 75 | 281 | 2.0 | 6.0 | 0.00 | 0.00 | 0.00 | 24 | 1014.8 |
| 20260508213524 | 75 | 326 | 2.0 | 6.0 | 0.00 | 0.00 | 0.00 | 24 | 1014.8 |
| 20260508213026 | 75 | 291 | 3.0 | 5.0 | 0.00 | 0.00 | 0.00 | 24 | 1014.9 |
| 20260508212524 | 75 | 297 | 1.0 | 6.0 | 0.00 | 0.00 | 0.00 | 25 | 1014.8 |
| 20260508212022 | 74 | 294 | 1.0 | 6.0 | 0.00 | 0.00 | 0.00 | 24 | 1014.8 |
| 20260508211524 | 74 | 319 | 1.0 | 6.0 | 0.00 | 0.00 | 0.00 | 24 | 1014.8 |
| 20260508211023 | 75 | 264 | 1.0 | 4.0 | 0.00 | 0.00 | 0.00 | 24 | 1014.9 |
| 20260508210522 | 75 | 288 | 1.0 | 6.0 | 0.00 | 0.00 | 0.00 | 23 | 1014.8 |
| 20260508210021 | 74 | 295 | 3.0 | 6.0 | 0.00 | 0.00 | 0.00 | 22 | 1014.8 |
| 20260508205522 | 74 | 291 | 3.0 | 7.0 | 0.00 | 0.00 | 0.00 | 22 | 1014.9 |
| 20260508205023 | 75 | 291 | 3.0 | 8.0 | 0.00 | 0.00 | 0.00 | 21 | 1014.9 |
| 20260508204522 | 75 | 277 | 3.0 | 8.0 | 0.00 | 0.00 | 0.00 | 22 | 1015.0 |
| 20260508204021 | 75 | 296 | 2.0 | 7.0 | 0.00 | 0.00 | 0.00 | 22 | 1015.0 |
| 20260508203521 | 75 | 295 | 3.0 | 7.0 | 0.00 | 0.00 | 0.00 | 21 | 1015.1 |
| 20260508203021 | 75 | 290 | 1.0 | 10.0 | 0.00 | 0.00 | 0.00 | 22 | 1015.0 |
| 20260508202521 | 75 | 290 | 3.0 | 10.0 | 0.00 | 0.00 | 0.00 | 22 | 1015.0 |
| 20260508202020 | 75 | 296 | 4.0 | 10.0 | 0.00 | 0.00 | 0.00 | 22 | 1015.0 |
| 20260508201521 | 75 | 274 | 2.0 | 9.0 | 0.00 | 0.00 | 0.00 | 23 | 1015.1 |
| 20260508201022 | 75 | 288 | 3.0 | 7.0 | 0.00 | 0.00 | 0.00 | 24 | 1015.0 |
| 20260508200519 | 75 | 276 | 3.0 | 6.0 | 0.00 | 0.00 | 0.00 | 23 | 1015.1 |
| 20260508200019 | 75 | 297 | 2.0 | 7.0 | 0.00 | 0.00 | 0.00 | 25 | 1015.1 |
| 20260508195517 | 75 | 293 | 1.0 | 8.0 | 0.00 | 0.00 | 0.00 | 25 | 1015.1 |
| 20260508195017 | 74 | 294 | 4.0 | 8.0 | 0.00 | 0.00 | 0.00 | 24 | 1015.2 |
| 20260508194517 | 74 | 313 | 4.0 | 8.0 | 0.00 | 0.00 | 0.00 | 23 | 1015.2 |
| 20260508194016 | 74 | 297 | 2.0 | 8.0 | 0.00 | 0.00 | 0.00 | 22 | 1015.1 |
| 20260508193519 | 74 | 282 | 1.0 | 7.0 | 0.00 | 0.00 | 0.00 | 23 | 1015.1 |
| 20260508193016 | 74 | 276 | 2.0 | 8.0 | 0.00 | 0.00 | 0.00 | 24 | 1015.1 |
| 20260508192514 | 74 | 304 | 2.0 | 8.0 | 0.00 | 0.00 | 0.00 | 24 | 1015.1 |
| 20260508192014 | 73 | 307 | 1.0 | 7.0 | 0.00 | 0.00 | 0.00 | 24 | 1015.2 |
| 20260508191511 | 73 | 300 | 3.0 | 8.0 | 0.00 | 0.00 | 0.00 | 25 | 1015.2 |
| 20260508191011 | 73 | 300 | 1.0 | 8.0 | 0.00 | 0.00 | 0.00 | 27 | 1015.3 |
| 20260508190510 | 72 | 276 | 1.0 | 8.0 | 0.00 | 0.00 | 0.00 | 26 | 1015.4 |
| 20260508190009 | 72 | 294 | 2.0 | 7.0 | 0.00 | 0.00 | 0.00 | 26 | 1015.6 |
| 20260508185513 | 72 | 293 | 2.0 | 7.0 | 0.00 | 0.00 | 0.00 | 25 | 1015.6 |
| 20260508185009 | 72 | 297 | 1.0 | 6.0 | 0.00 | 0.00 | 0.00 | 27 | 1015.7 |
| 20260508184508 | 72 | 283 | 1.0 | 8.0 | 0.00 | 0.00 | 0.00 | 27 | 1015.6 |
| 20260508184006 | 72 | 282 | 3.0 | 9.0 | 0.00 | 0.00 | 0.00 | 27 | 1015.6 |
| 20260508183505 | 71 | 314 | 5.0 | 9.0 | 0.00 | 0.00 | 0.00 | 25 | 1015.7 |
| 20260508183004 | 71 | 307 | 3.0 | 7.0 | 0.00 | 0.00 | 0.00 | 26 | 1015.7 |
| 20260508182503 | 71 | 294 | 2.0 | 7.0 | 0.00 | 0.00 | 0.00 | 27 | 1015.7 |
| 20260508182001 | 70 | 310 | 4.0 | 7.0 | 0.00 | 0.00 | 0.00 | 30 | 1015.8 |
| 20260508181506 | 70 | 294 | 2.0 | 7.0 | 0.00 | 0.00 | 0.00 | 31 | 1015.8 |
| 20260508181101 | 70 | 274 | 4.0 | 7.0 | 0.00 | 0.00 | 0.00 | 30 | 1015.9 |
| 20260508180600 | 70 | 293 | 2.0 | 6.0 | 0.00 | 0.00 | 0.00 | 32 | 1015.9 |
| 20260508180059 | 69 | 273 | 2.0 | 6.0 | 0.00 | 0.00 | 0.00 | 34 | 1016.0 |
| 20260508175557 | 69 | 290 | 1.0 | 5.0 | 0.00 | 0.00 | 0.00 | 37 | 1016.0 |
| 20260508175056 | 68 | 294 | 2.0 | 6.0 | 0.00 | 0.00 | 0.00 | 37 | 1016.1 |
| 20260508174557 | 68 | 290 | 2.0 | 6.0 | 0.00 | 0.00 | 0.00 | 36 | 1016.1 |
| 20260508174054 | 68 | 294 | 2.0 | 6.0 | 0.00 | 0.00 | 0.00 | 37 | 1016.1 |
| 20260508173554 | 68 | 290 | 2.0 | 6.0 | 0.00 | 0.00 | 0.00 | 37 | 1016.1 |
| 20260508173053 | 68 | 299 | 3.0 | 6.0 | 0.00 | 0.00 | 0.00 | 37 | 1016.1 |
| 20260508172553 | 67 | 311 | 2.0 | 5.0 | 0.00 | 0.00 | 0.00 | 38 | 1016.1 |
| 20260508172051 | 67 | 285 | 1.0 | 6.0 | 0.00 | 0.00 | 0.00 | 39 | 1016.1 |
| 20260508171554 | 66 | 299 | 2.0 | 6.0 | 0.00 | 0.00 | 0.00 | 39 | 1016.1 |
| 20260508171048 | 66 | 297 | 2.0 | 6.0 | 0.00 | 0.00 | 0.00 | 39 | 1016.1 |
| 20260508170548 | 66 | 296 | 2.0 | 6.0 | 0.00 | 0.00 | 0.00 | 40 | 1016.2 |
| 20260508170054 | 66 | 309 | 0.0 | 3.0 | 0.00 | 0.00 | 0.00 | 42 | 1016.2 |
| 20260508165545 | 66 | 303 | 1.0 | 3.0 | 0.00 | 0.00 | 0.00 | 41 | 1016.2 |
| 20260508165044 | 65 | 124 | 1.0 | 4.0 | 0.00 | 0.00 | 0.00 | 42 | 1016.2 |
| 20260508164548 | 65 | 283 | 1.0 | 6.0 | 0.00 | 0.00 | 0.00 | 42 | 1016.2 |
| 20260508164043 | 65 | 297 | 1.0 | 6.0 | 0.00 | 0.00 | 0.00 | 42 | 1016.2 |
| 20260508163541 | 64 | 285 | 1.0 | 6.0 | 0.00 | 0.00 | 0.00 | 43 | 1016.2 |
| 20260508163040 | 64 | 290 | 2.0 | 6.0 | 0.00 | 0.00 | 0.00 | 43 | 1016.2 |
| 20260508162538 | 63 | 325 | 0.0 | 2.0 | 0.00 | 0.00 | 0.00 | 45 | 1016.2 |
| 20260508162038 | 63 | 117 | 0.0 | 2.0 | 0.00 | 0.00 | 0.00 | 45 | 1016.3 |
| 20260508161536 | 62 | 285 | 0.0 | 3.0 | 0.00 | 0.00 | 0.00 | 46 | 1016.3 |
| 20260508161035 | 62 | 294 | 1.0 | 3.0 | 0.00 | 0.00 | 0.00 | 46 | 1016.5 |
| 20260508160533 | 62 | 301 | 0.0 | 4.0 | 0.00 | 0.00 | 0.00 | 47 | 1016.5 |
| 20260508160034 | 61 | 294 | 1.0 | 4.0 | 0.00 | 0.00 | 0.00 | 46 | 1016.5 |
| 20260508155531 | 61 | 132 | 0.0 | 3.0 | 0.00 | 0.00 | 0.00 | 46 | 1016.5 |
| 20260508155030 | 61 | 333 | 0.0 | 3.0 | 0.00 | 0.00 | 0.00 | 47 | 1016.4 |
| 20260508154531 | 60 | 112 | 0.0 | 2.0 | 0.00 | 0.00 | 0.00 | 48 | 1016.4 |
| 20260508154027 | 60 | 134 | 0.0 | 2.0 | 0.00 | 0.00 | 0.00 | 50 | 1016.4 |
| 20260508153527 | 60 | 323 | 0.0 | 2.0 | 0.00 | 0.00 | 0.00 | 50 | 1016.3 |
| 20260508153025 | 59 | 323 | 0.0 | 2.0 | 0.00 | 0.00 | 0.00 | 51 | 1016.3 |
| 20260508152523 | 59 | 120 | 0.0 | 1.0 | 0.00 | 0.00 | 0.00 | 51 | 1016.4 |
| 20260508152023 | 58 | 120 | 0.0 | 1.0 | 0.00 | 0.00 | 0.00 | 52 | 1016.4 |
| 20260508151524 | 58 | 109 | 0.0 | 1.0 | 0.00 | 0.00 | 0.00 | 51 | 1016.3 |
| 20260508151021 | 58 | 108 | 0.0 | 1.0 | 0.00 | 0.00 | 0.00 | 53 | 1016.3 |
| 20260508150518 | 57 | 108 | 0.0 | 1.0 | 0.00 | 0.00 | 0.00 | 54 | 1016.3 |
| 20260508150018 | 57 | 108 | 0.0 | 1.0 | 0.00 | 0.00 | 0.00 | 56 | 1016.3 |
| 20260508145519 | 56 | 109 | 0.0 | 1.0 | 0.00 | 0.00 | 0.00 | 58 | 1016.3 |
| 20260508145016 | 56 | 108 | 0.0 | 1.0 | 0.00 | 0.00 | 0.00 | 58 | 1016.3 |
| 20260508144516 | 55 | 103 | 0.0 | 1.0 | 0.00 | 0.00 | 0.00 | 59 | 1016.3 |
| 20260508144016 | 55 | 103 | 0.0 | 1.0 | 0.00 | 0.00 | 0.00 | 59 | 1016.2 |
| 20260508143518 | 54 | 103 | 0.0 | 1.0 | 0.00 | 0.00 | 0.00 | 59 | 1016.2 |
| 20260508143015 | 54 | 103 | 0.0 | 1.0 | 0.00 | 0.00 | 0.00 | 60 | 1016.2 |
| 20260508142514 | 54 | 103 | 0.0 | 1.0 | 0.00 | 0.00 | 0.00 | 61 | 1016.2 |
| 20260508142014 | 53 | 103 | 0.0 | 1.0 | 0.00 | 0.00 | 0.00 | 61 | 1016.1 |
| 20260508141514 | 53 | 103 | 0.0 | 1.0 | 0.00 | 0.00 | 0.00 | 63 | 1016.0 |
| 20260508141014 | 52 | 103 | 0.0 | 1.0 | 0.00 | 0.00 | 0.00 | 65 | 1015.9 |
| 20260508140513 | 51 | 103 | 0.0 | 1.0 | 0.00 | 0.00 | 0.00 | 68 | 1016.0 |
| 20260508140013 | 51 | 103 | 0.0 | 1.0 | 0.00 | 0.00 | 0.00 | 68 | 1015.9 |
| 20260508135514 | 50 | 103 | 0.0 | 0.0 | 0.00 | 0.00 | 0.00 | 69 | 1015.9 |
| 20260508135015 | 50 | 103 | 0.0 | 0.0 | 0.00 | 0.00 | 0.00 | 71 | 1015.9 |
| 20260508134511 | 50 | 103 | 0.0 | 0.0 | 0.00 | 0.00 | 0.00 | 70 | 1015.8 |
| 20260508134013 | 49 | 103 | 0.0 | 0.0 | 0.00 | 0.00 | 0.00 | 70 | 1015.7 |
| 20260508133514 | 48 | 103 | 0.0 | 0.0 | 0.00 | 0.00 | 0.00 | 71 | 1015.7 |
| 20260508133010 | 48 | 103 | 0.0 | 0.0 | 0.00 | 0.00 | 0.00 | 74 | 1015.7 |
| 20260508132511 | 48 | 103 | 0.0 | 0.0 | 0.00 | 0.00 | 0.00 | 76 | 1015.7 |
| 20260508132009 | 48 | 103 | 0.0 | 0.0 | 0.00 | 0.00 | 0.00 | 76 | 1015.6 |
| 20260508131510 | 48 | 103 | 0.0 | 0.0 | 0.00 | 0.00 | 0.00 | 75 | 1015.4 |
| 20260508131008 | 48 | 103 | 0.0 | 0.0 | 0.00 | 0.00 | 0.00 | 72 | 1015.4 |
| 20260508130507 | 48 | 103 | 0.0 | 0.0 | 0.00 | 0.00 | 0.00 | 71 | 1015.3 |
| 20260508130007 | 48 | 103 | 0.0 | 0.0 | 0.00 | 0.00 | 0.00 | 70 | 1015.3 |
| 20260508125506 | 48 | 103 | 0.0 | 0.0 | 0.00 | 0.00 | 0.00 | 69 | 1015.2 |
| 20260508125007 | 48 | 103 | 0.0 | 0.0 | 0.00 | 0.00 | 0.00 | 69 | 1015.2 |
| 20260508124505 | 48 | 103 | 0.0 | 1.0 | 0.00 | 0.00 | 0.00 | 68 | 1015.0 |
| 20260508124005 | 48 | 103 | 0.0 | 1.0 | 0.00 | 0.00 | 0.00 | 69 | 1015.0 |
| 20260508123505 | 48 | 103 | 0.0 | 1.0 | 0.00 | 0.00 | 0.00 | 69 | 1015.0 |
| 20260508123003 | 48 | 103 | 0.0 | 1.0 | 0.00 | 0.00 | 0.00 | 69 | 1015.0 |
| 20260508122502 | 48 | 103 | 0.0 | 1.0 | 0.00 | 0.00 | 0.00 | 71 | 1014.9 |
| 20260508122002 | 48 | 103 | 0.0 | 1.0 | 0.00 | 0.00 | 0.00 | 74 | 1014.9 |
| 20260508121502 | 48 | 103 | 0.0 | 0.0 | 0.00 | 0.00 | 0.00 | 72 | 1014.9 |
| 20260508121001 | 48 | 103 | 0.0 | 0.0 | 0.00 | 0.00 | 0.00 | 72 | 1014.8 |
| 20260508120503 | 48 | 103 | 0.0 | 0.0 | 0.00 | 0.00 | 0.00 | 72 | 1014.9 |
| 20260508120001 | 47 | 103 | 0.0 | 0.0 | 0.00 | 0.00 | 0.00 | 73 | 1014.9 |
| 20260508115501 | 47 | 103 | 0.0 | 0.0 | 0.00 | 0.00 | 0.00 | 75 | 1014.9 |
| 20260508115101 | 47 | 103 | 0.0 | 0.0 | 0.00 | 0.00 | 0.00 | 76 | 1014.9 |
| 20260508114601 | 46 | 103 | 0.0 | 0.0 | 0.00 | 0.00 | 0.00 | 77 | 1014.9 |
| 20260508114100 | 46 | 103 | 0.0 | 0.0 | 0.00 | 0.00 | 0.00 | 78 | 1014.9 |
| 20260508113601 | 46 | 103 | 0.0 | 0.0 | 0.00 | 0.00 | 0.00 | 79 | 1014.9 |
| 20260508113107 | 47 | 103 | 0.0 | 0.0 | 0.00 | 0.00 | 0.00 | 77 | 1014.8 |
| 20260508112556 | 47 | 103 | 0.0 | 0.0 | 0.00 | 0.00 | 0.00 | 77 | 1014.8 |
| 20260508112055 | 47 | 103 | 0.0 | 0.0 | 0.00 | 0.00 | 0.00 | 76 | 1014.9 |
| 20260508111555 | 47 | 103 | 0.0 | 0.0 | 0.00 | 0.00 | 0.00 | 75 | 1014.9 |
| 20260508111057 | 48 | 103 | 0.0 | 0.0 | 0.00 | 0.00 | 0.00 | 74 | 1014.9 |
| 20260508110553 | 48 | 103 | 0.0 | 0.0 | 0.00 | 0.00 | 0.00 | 74 | 1014.8 |
| 20260508110056 | 48 | 103 | 0.0 | 0.0 | 0.00 | 0.00 | 0.00 | 73 | 1014.8 |
| 20260508105551 | 48 | 103 | 0.0 | 0.0 | 0.00 | 0.00 | 0.00 | 72 | 1014.8 |
| 20260508105053 | 48 | 103 | 0.0 | 0.0 | 0.00 | 0.00 | 0.00 | 72 | 1014.8 |
| 20260508104617 | 48 | 103 | 0.0 | 0.0 | 0.00 | 0.00 | 0.00 | 72 | 1014.7 |
| 20260508104052 | 48 | 103 | 0.0 | 0.0 | 0.00 | 0.00 | 0.00 | 72 | 1014.6 |
| 20260508103548 | 48 | 103 | 0.0 | 0.0 | 0.00 | 0.00 | 0.00 | 72 | 1014.6 |
| 20260508103048 | 48 | 103 | 0.0 | 0.0 | 0.00 | 0.00 | 0.00 | 71 | 1014.5 |
| 20260508102546 | 49 | 103 | 0.0 | 0.0 | 0.00 | 0.00 | 0.00 | 71 | 1014.5 |
| 20260508102045 | 49 | 103 | 0.0 | 0.0 | 0.00 | 0.00 | 0.00 | 71 | 1014.5 |
| 20260508101549 | 49 | 103 | 0.0 | 0.0 | 0.00 | 0.00 | 0.00 | 70 | 1014.4 |
| 20260508101043 | 49 | 103 | 0.0 | 0.0 | 0.00 | 0.00 | 0.00 | 70 | 1014.4 |
| 20260508100541 | 49 | 103 | 0.0 | 1.0 | 0.00 | 0.00 | 0.00 | 70 | 1014.3 |
| 20260508100041 | 50 | 103 | 0.0 | 1.0 | 0.00 | 0.00 | 0.00 | 69 | 1014.3 |
| 20260508095539 | 50 | 103 | 0.0 | 1.0 | 0.00 | 0.00 | 0.00 | 68 | 1014.2 |
| 20260508095039 | 50 | 103 | 0.0 | 1.0 | 0.00 | 0.00 | 0.00 | 68 | 1014.2 |
| 20260508094543 | 51 | 103 | 0.0 | 1.0 | 0.00 | 0.00 | 0.00 | 66 | 1014.1 |
| 20260508094036 | 51 | 103 | 0.0 | 1.0 | 0.00 | 0.00 | 0.00 | 64 | 1014.0 |
| 20260508093539 | 52 | 100 | 0.0 | 1.0 | 0.00 | 0.00 | 0.00 | 63 | 1014.0 |
| 20260508093035 | 52 | 100 | 0.0 | 1.0 | 0.00 | 0.00 | 0.00 | 62 | 1014.0 |
| 20260508092534 | 52 | 101 | 0.0 | 0.0 | 0.00 | 0.00 | 0.00 | 62 | 1014.0 |
| 20260508092033 | 53 | 100 | 0.0 | 0.0 | 0.00 | 0.00 | 0.00 | 61 | 1013.9 |
| 20260508091533 | 53 | 100 | 0.0 | 0.0 | 0.00 | 0.00 | 0.00 | 60 | 1013.8 |
| 20260508091032 | 53 | 100 | 0.0 | 1.0 | 0.00 | 0.00 | 0.00 | 58 | 1013.7 |
| 20260508090532 | 53 | 100 | 0.0 | 1.0 | 0.00 | 0.00 | 0.00 | 58 | 1013.7 |
| 20260508090032 | 53 | 101 | 0.0 | 0.0 | 0.00 | 0.00 | 0.00 | 58 | 1013.8 |
| 20260508085532 | 53 | 100 | 0.0 | 0.0 | 0.00 | 0.00 | 0.00 | 59 | 1013.7 |
| 20260508085032 | 53 | 100 | 0.0 | 0.0 | 0.00 | 0.00 | 0.00 | 59 | 1013.7 |
| 20260508084532 | 53 | 100 | 0.0 | 1.0 | 0.00 | 0.00 | 0.00 | 59 | 1013.7 |
| 20260508084032 | 53 | 100 | 0.0 | 1.0 | 0.00 | 0.00 | 0.00 | 58 | 1013.7 |
| 20260508083533 | 53 | 100 | 0.0 | 1.0 | 0.00 | 0.00 | 0.00 | 57 | 1013.7 |
| 20260508083032 | 53 | 54 | 0.0 | 2.0 | 0.00 | 0.00 | 0.00 | 58 | 1013.7 |
| 20260508082530 | 53 | 44 | 0.0 | 2.0 | 0.00 | 0.00 | 0.00 | 59 | 1013.7 |
| 20260508082030 | 52 | 106 | 0.0 | 0.0 | 0.00 | 0.00 | 0.00 | 61 | 1013.7 |
| 20260508081530 | 52 | 105 | 0.0 | 1.0 | 0.00 | 0.00 | 0.00 | 62 | 1013.7 |
| 20260508081030 | 52 | 105 | 0.0 | 1.0 | 0.00 | 0.00 | 0.00 | 63 | 1013.7 |
| 20260508080533 | 51 | 79 | 0.0 | 1.0 | 0.00 | 0.00 | 0.00 | 66 | 1013.7 |
| 20260508080029 | 51 | 79 | 0.0 | 1.0 | 0.00 | 0.00 | 0.00 | 67 | 1013.7 |
| 20260508075528 | 51 | 79 | 0.0 | 0.0 | 0.00 | 0.00 | 0.00 | 67 | 1013.6 |
| 20260508075030 | 51 | 79 | 0.0 | 0.0 | 0.00 | 0.00 | 0.00 | 69 | 1013.7 |
| 20260508074527 | 51 | 79 | 0.0 | 0.0 | 0.00 | 0.00 | 0.00 | 69 | 1013.6 |
| 20260508074026 | 52 | 79 | 0.0 | 0.0 | 0.00 | 0.00 | 0.00 | 68 | 1013.6 |
| 20260508073526 | 52 | 79 | 0.0 | 0.0 | 0.00 | 0.00 | 0.00 | 68 | 1013.6 |
| 20260508073029 | 52 | 79 | 0.0 | 0.0 | 0.00 | 0.00 | 0.00 | 68 | 1013.6 |
| 20260508072523 | 52 | 79 | 0.0 | 0.0 | 0.00 | 0.00 | 0.00 | 67 | 1013.6 |
| 20260508072024 | 52 | 79 | 0.0 | 0.0 | 0.00 | 0.00 | 0.00 | 66 | 1013.5 |
| 20260508071522 | 53 | 79 | 0.0 | 0.0 | 0.00 | 0.00 | 0.00 | 65 | 1013.5 |
| 20260508071020 | 53 | 79 | 0.0 | 0.0 | 0.00 | 0.00 | 0.00 | 65 | 1013.5 |
| 20260508070519 | 53 | 79 | 0.0 | 0.0 | 0.00 | 0.00 | 0.00 | 63 | 1013.4 |
| 20260508070023 | 54 | 79 | 0.0 | 0.0 | 0.00 | 0.00 | 0.00 | 63 | 1013.3 |
| 20260508065517 | 54 | 79 | 0.0 | 0.0 | 0.00 | 0.00 | 0.00 | 63 | 1013.3 |
| 20260508065016 | 54 | 79 | 0.0 | 0.0 | 0.00 | 0.00 | 0.00 | 62 | 1013.2 |
| 20260508064517 | 54 | 79 | 0.0 | 0.0 | 0.00 | 0.00 | 0.00 | 62 | 1013.2 |
| 20260508064017 | 54 | 79 | 0.0 | 0.0 | 0.00 | 0.00 | 0.00 | 61 | 1013.2 |
| 20260508063513 | 55 | 79 | 0.0 | 0.0 | 0.00 | 0.00 | 0.00 | 61 | 1013.2 |